Showing default

IRIDE-MS2-HEO-11, 68983

Orbit data source: Space-Track

IRIDE-MS2-HEO-11, 68983 is an Italian payload satellite in SSO that was launched on Sun, 03 May 2026 UTC via an FALCON 9 launch vehicle from the Air Force Western Test Range (AFWTR). Payload-class satellites include a variety of spacecraft equipped with specific instruments for various scientific and technological missions. These include communications satellites like Starlink; space stations such as the ISS; scientific satellites like the Hubble; Earth observation satellites from companies like Planet Labs, Umbra, and HawkEye 360; GPS; miniature CubeSats for education and research; and military/defense satellites.

Loading next visibility...
Identifier
68983, 2026-100D
Orbit
SSO
Country
Flag of ITIT
Related business
Manufacturer
ArgoTec
Mission
Operational Civil Imaging
Bus & Motor
HAWK, Unknown motor
Mass
65 kg wet, 65 kg dry
Launch date (UTC)
2026-05-03 (4 months ago)
Launch vehicle
FALCON 9
Launch site
Air Force Western Test Range (AFWTR)
Object type
Payload
Rocket body
Debris
Shape & HBR
Box + 2 Pan, 3.0 m
Radar Cross Section
0.683 m², Medium (>0.1 m² and < 1m²)

Expand to show TLE details & history
Last TLE update: 17 hours ago

TLE from 17 hours ago
0 IRIDE-MS2-HEO-11
1 68983U 26100D   26237.53309822  .00001284  00000-0  13467-3 0  9994
2 68983  97.7282 133.6087 0002013 315.3424  44.7632 14.91234586 17037
Epoch: 2026-08-25T12:47Z
TLE epoch observation values (Epoch: 2026-08-25T12:47:39.686Z)
Latitude
-0.00003°
Longitude
-32.10574°
Altitude
596.13 km
Speed
7.562 km/s
True Right ascension
08h 54m 26s
True Declination
0° 00' 00"
Sunlit
Object was in daylight at epoch
Visualization orbit readout
Latitude
Unknown
Longitude
Unknown
Altitude
Unknown
Speed
Unknown
Apparent Right ascension
Unknown
Apparent Declination
Unknown
Sunlit
N/A
Visualization observer readout
Local Sidereal Time
21:34:54
Azimuth
Unknown
Elevation
Unknown
Doppler factor
Unknown
Orbital elements
Apogee altitude
592.506 km
Perigee altitude
589.7 km
Semi-major axis
6,969.24 km
Eccentricity
0.0002
Inclination
97.7282°
RAAN
133.6087°
Arg. of periapsis
315.3424°
True anomaly
44.77945°
Mean anomaly
44.7632°
Eccentric anomaly
44.77132°
Mean motion
3.73048 °/min
Orbital period
96.5 mins
BSTAR
0.00013467
Loading maneuver chart data...
Computing Atmospheric mass density...
Loading historical data...
Loading historical data...
Loading historical data...
Loading historical data...
Loading historical data...
Loading historical data...
Loading historical data...

Documentation

Showing up to 5 results
|